HORNET1 KSAN-

Flight info

Callsign HORNET1
Flight time N/A
Altitude VFR/055
Route VFR N
Aircraft F18H/M-VW/N

Departure

Time 2026-05-05 02:32
Airport San Diego International Airport (KSAN)

Arrival

Time N/A
Airport -
Time Latitude Longitude Altitude Speed Heading
2026-05-05 02:32 32.73988 -117.19698 7886 ft 83 kts 323°
2026-05-05 02:32 32.74570 -117.20051 11693 ft 96 kts 317°
2026-05-05 02:32 32.75131 -117.20380 14403 ft 59 kts 312°
2026-05-05 02:32 32.75412 -117.20308 15501 ft 39 kts 137°
2026-05-05 02:33 32.75129 -117.20024 12249 ft 61 kts 290°
2026-05-05 02:33 32.76275 -117.20671 9301 ft 323 kts 338°
2026-05-05 02:33 32.78985 -117.21886 9336 ft 488 kts 321°
2026-05-05 02:33 32.81793 -117.25066 10157 ft 621 kts 315°
2026-05-05 02:34 32.85557 -117.28195 10598 ft 706 kts 332°
2026-05-05 02:34 32.89819 -117.30671 11954 ft 608 kts 332°
2026-05-05 02:34 32.93400 -117.32639 12096 ft 532 kts 332°
2026-05-05 02:34 32.96590 -117.34421 12074 ft 484 kts 333°
2026-05-05 02:35 32.99508 -117.36166 11177 ft 441 kts 345°
2026-05-05 02:35 33.01800 -117.34094 8813 ft 448 kts 51°
2026-05-05 02:35 33.03589 -117.31299 9369 ft 218 kts 36°
2026-05-05 02:35 33.04126 -117.31303 11219 ft 132 kts 36°
2026-05-05 02:36 33.04825 -117.30411 6776 ft 219 kts 66°
2026-05-05 02:36 33.04017 -117.29849 1981 ft 255 kts 182°
2026-05-05 02:36 33.02265 -117.29338 236 ft 257 kts 166°
2026-05-05 02:36 33.01161 -117.28902 70 ft 167 kts 159°
2026-05-05 02:37 33.00390 -117.27623 1329 ft 175 kts 118°
2026-05-05 02:37 32.99668 -117.25614 3156 ft 351 kts 112°
2026-05-05 02:37 32.98925 -117.23099 3219 ft 296 kts 109°
2026-05-05 02:37 32.98387 -117.20927 3168 ft 253 kts 106°
2026-05-05 02:38 32.98272 -117.19004 2947 ft 218 kts 90°
2026-05-05 02:38 32.98246 -117.17305 2689 ft 193 kts 92°
2026-05-05 02:38 32.98215 -117.15628 2493 ft 242 kts 91°
2026-05-05 02:38 32.98092 -117.13410 3015 ft 291 kts 98°
2026-05-05 02:39 32.97854 -117.11047 3563 ft 282 kts 97°
2026-05-05 02:39 32.97583 -117.08553 4535 ft 329 kts 99°
2026-05-05 02:39 32.97503 -117.05653 5798 ft 372 kts 89°
2026-05-05 02:39 32.97542 -117.02500 7192 ft 380 kts 89°
2026-05-05 02:40 32.97504 -116.99312 7829 ft 375 kts 93°
2026-05-05 02:40 32.97096 -116.96726 6736 ft 264 kts 142°
2026-05-05 02:40 32.95641 -116.95503 6085 ft 248 kts 151°
2026-05-05 02:40 32.94218 -116.94469 5702 ft 233 kts 153°
2026-05-05 02:41 32.92877 -116.93462 5193 ft 232 kts 151°
2026-05-05 02:41 32.91354 -116.92329 5166 ft 273 kts 151°
2026-05-05 02:41 32.89775 -116.91175 5160 ft 258 kts 152°
2026-05-05 02:41 32.88271 -116.90078 5045 ft 248 kts 152°
2026-05-05 02:42 32.86847 -116.89034 5081 ft 235 kts 152°
2026-05-05 02:42 32.85486 -116.88029 5056 ft 226 kts 152°
2026-05-05 02:42 32.84166 -116.87053 5025 ft 227 kts 152°
2026-05-05 02:42 32.82670 -116.86273 5079 ft 240 kts 175°
2026-05-05 02:43 32.81009 -116.86465 5136 ft 246 kts 191°
2026-05-05 02:43 32.79192 -116.86763 5189 ft 283 kts 192°
2026-05-05 02:43 32.77150 -116.87128 5280 ft 307 kts 191°
2026-05-05 02:43 32.74956 -116.87532 5349 ft 340 kts 192°
2026-05-05 02:44 32.72468 -116.88015 5109 ft 371 kts 192°
2026-05-05 02:44 32.70329 -116.88955 5241 ft 302 kts 221°
2026-05-05 02:44 32.69063 -116.90877 5104 ft 297 kts 249°
2026-05-05 02:44 32.68420 -116.93296 4384 ft 318 kts 258°
2026-05-05 02:45 32.68343 -116.95933 3915 ft 326 kts 273°
2026-05-05 02:45 32.68554 -116.98602 3712 ft 324 kts 278°
2026-05-05 02:45 32.69152 -117.01194 3307 ft 326 kts 285°
2026-05-05 02:45 32.69793 -117.03741 2941 ft 305 kts 287°
2026-05-05 02:46 32.70389 -117.05957 2835 ft 262 kts 285°
2026-05-05 02:46 32.70861 -117.07917 2628 ft 238 kts 283°
2026-05-05 02:46 32.71240 -117.09758 2467 ft 219 kts 283°
2026-05-05 02:46 32.71599 -117.11409 2350 ft 191 kts 279°
2026-05-05 02:47 32.71232 -117.12805 1981 ft 193 kts 232°
2026-05-05 02:47 32.70258 -117.14159 1877 ft 222 kts 231°
2026-05-05 02:47 32.69008 -117.15901 1161 ft 318 kts 237°
2026-05-05 02:47 32.68653 -117.18494 313 ft 323 kts 280°
2026-05-05 02:48 32.69432 -117.20640 28 ft 232 kts 300°
2026-05-05 02:48 32.70060 -117.21760 22 ft 105 kts 310°
2026-05-05 02:48 32.70233 -117.22089 25 ft 11 kts 341°
2026-05-05 02:48 32.70293 -117.22021 24 ft 15 kts 83°
2026-05-05 02:49 32.70292 -117.22012 24 ft 0 kts 100°
2026-05-05 02:49 32.70288 -117.21988 24 ft 34 kts 104°
2026-05-05 02:49 32.69968 -117.21372 24 ft 94 kts 110°
2026-05-05 02:50 32.69995 -117.20978 31 ft 9 kts 36°
2026-05-05 02:50 32.69998 -117.20976 31 ft 0 kts 36°